Home > Weather > Peterborough > Past weeks

Flag for Canada Past Weather in Peterborough, Ontario, Canada — Yesterday and Last 2 Weeks

Now
79 °F

Passing clouds.


Feels Like: 79 °F
Forecast: 57 / 82 °F
Wind: 10 mph from Northeast

Location: Peterborough Airport

Current Time: Jul 30, 2016 at 3:00:13 PM

Latest Report: Jul 30, 2016 at 2:00 PM


Visibility: 9 mi

Pressure: 30.06 "Hg

Humidity: 39%

Dew Point: 52 °F

Location of PeterboroughLocation

Past Weather in Peterborough — Graph

°F

Peterborough Temperature Yesterday

Maximum temperature yesterday: 84 °F (at 5:00 PM)
Minimum temperature yesterday: 63 °F (at 5:00 AM)
Average temperature yesterday: 73 °F

High & Low Weather Summary for the Past Weeks

 TemperatureHumidityPressure
High93 °F (Jul 22, 3:00 PM)100% (Jul 17, 12:00 AM)30.27 "Hg (Jul 17, 12:00 AM)
Low45 °F (Jul 20, 6:00 AM)27% (Jul 22, 6:00 PM)29.78 "Hg (Jul 15, 1:00 PM)
Average71 °F67%29.98 "Hg
* Reported Jul 15 1:00 PM — Jul 30 1:00 PM, Peterborough, Weather by CustomWeather, © 2016

Note: Actual official high and low records may vary slightly from our data, if they occured in-between our weather recording intervals... More about our weather records

Advertising

Peterborough Weather History for the Previous 24 Hours

Scroll right to see more
 ConditionsComfort  
Time TempWeatherWind HumidityBarometerVisibility
1:00 PM
Sat, Jul 30
77 °FPartly sunny.9 mph44%30.08 "Hg9 mi
12:00 PM75 °FPartly sunny.7 mph47%30.09 "Hg9 mi
11:00 AM70 °FBroken clouds.10 mph57%30.09 "Hg9 mi
10:00 AM68 °FPartly sunny.8 mph64%30.09 "Hg9 mi
9:00 AM64 °FPartly sunny.6 mph73%30.10 "Hg9 mi
8:00 AM63 °FPartly sunny.5 mph77%30.09 "Hg9 mi
7:00 AM59 °FOvercast.8 mph82%30.07 "Hg9 mi
6:00 AM59 °FOvercast.5 mph82%30.05 "Hg9 mi
5:00 AM59 °FOvercast.5 mph82%30.05 "Hg9 mi
4:00 AM61 °FMostly cloudy.3 mph77%30.04 "Hg9 mi
3:00 AM61 °FOvercast.5 mph77%30.04 "Hg9 mi
2:00 AM61 °FPassing clouds.5 mph77%30.05 "Hg9 mi
1:00 AM61 °FPassing clouds.6 mph77%30.05 "Hg9 mi
12:00 AM63 °FClear.6 mph73%30.05 "Hg9 mi
11:00 PM
Fri, Jul 29
66 °FClear.9 mph64%30.04 "Hg9 mi
10:00 PM70 °FClear.10 mph60%30.02 "Hg9 mi
9:00 PM73 °FSunny.8 mph50%29.99 "Hg9 mi
8:00 PM77 °FSunny.7 mph47%29.97 "Hg9 mi
7:00 PM81 °FSunny.5 mph34%29.96 "Hg9 mi
6:00 PM82 °FScattered clouds.8 mph32%29.95 "Hg9 mi
5:00 PM84 °FSunny.7 mph33%29.95 "Hg9 mi
4:00 PM82 °FScattered clouds.8 mph37%29.95 "Hg9 mi
3:00 PM82 °FScattered clouds.7 mph37%29.96 "Hg9 mi
Weather by CustomWeather, © 2016

See weather overviewHow to use our weather pages